Change the Weather History Date:

Sunday, January 26, 2014

  Actual Average Record
Temperature  
Mean Temperature 50 °F -  
Max Temperature 66 °F 60 °F 84 °F (1950)
Min Temperature 34 °F 37 °F 11 °F (1940)
Degree Days  
Heating Degree Days 15    
Moisture  
Dew Point 40 °F    
Average Humidity 74    
Maximum Humidity 96    
Minimum Humidity 41    
Precipitation  
Precipitation 0.00 in - - ()
Sea Level Pressure  
Sea Level Pressure 29.89 in    
Wind  
Wind Speed 2 mph (South)    
Max Wind Speed 9 mph    
Max Gust Speed -    
Visibility 10 miles    
Events      
Averages and records for this station are not official NWS values.
T = Trace of Precipitation, MM = Missing Value Source: NWS Daily Summary

Daily Weather History Graph

Daily Weather History Graph

Search for Another Location

Airport or City:

Trip Planner

Search our weather history database for the weather conditions in past years. The results will help you decide how hot, cold, wet, or windy it might be!

Date:

Astronomy

Jan. 26, 2014 Rise Set
Actual Time 7:08 AM CST 5:41 PM CST
Civil Twilight 6:43 AM CST 6:07 PM CST
Nautical Twilight 6:13 AM CST 6:36 PM CST
Astronomical Twilight 5:44 AM CST 7:05 PM CST
Moon 2:45 AM CST (1/26) 1:33 PM CST (1/26)
Length of Visible Light 11h 24m
Length of Day
10h 32m
Waning Crescent, 23% of the Moon is Illuminated
Jan 26
Waning Crescent
Jan 30
New
Feb 6
First Quarter
Feb 14
Full
Feb 22
Last Quarter

Hourly Weather History & Observations

Time (CST) Temp. Windchill Dew Point Humidity Pressure Visibility Wind Dir Wind Speed Gust Speed Precip Events Conditions
12:15 AM 36.1 °F - 34.0 °F 92% 30.02 in 10.0 mi Calm Calm - N/A   Clear
12:35 AM 36.1 °F - 33.3 °F 89% 30.02 in 10.0 mi Calm Calm - N/A   Clear
12:55 AM 36.7 °F - 34.0 °F 90% 30.01 in 10.0 mi Calm Calm - N/A   Clear
1:15 AM 36.0 °F - 34.0 °F 93% 30.01 in 10.0 mi Calm Calm - N/A   Clear
1:35 AM 35.8 °F - 34.0 °F 93% 30.00 in 10.0 mi Calm Calm - N/A   Clear
1:55 AM 36.1 °F - 34.7 °F 94% 30.00 in 10.0 mi Calm Calm - N/A   Clear
2:15 AM 36.5 °F - 34.2 °F 91% 30.00 in 10.0 mi Calm Calm - N/A   Clear
2:35 AM 35.8 °F - 33.8 °F 92% 30.00 in 10.0 mi Calm Calm - N/A   Clear
2:55 AM 35.2 °F - 33.4 °F 93% 30.00 in 10.0 mi Calm Calm - N/A   Clear
3:15 AM 34.9 °F - 33.6 °F 95% 29.99 in 10.0 mi Calm Calm - N/A   Clear
3:35 AM 34.7 °F - 33.3 °F 94% 29.98 in 10.0 mi Calm Calm - N/A   Clear
3:55 AM 34.9 °F - 33.8 °F 96% 29.99 in 10.0 mi Calm Calm - N/A   Clear
4:15 AM 35.2 °F - 34.0 °F 95% 29.98 in 10.0 mi Calm Calm - N/A   Clear
4:35 AM 35.6 °F - 33.6 °F 92% 29.98 in 10.0 mi Calm Calm - N/A   Clear
4:55 AM 35.8 °F - 34.0 °F 93% 29.97 in 10.0 mi Calm Calm - N/A   Clear
5:15 AM 36.3 °F - 34.5 °F 93% 29.96 in 10.0 mi Calm Calm - N/A   Clear
5:35 AM 36.0 °F - 34.7 °F 95% 29.97 in 10.0 mi Calm Calm - N/A   Clear
5:55 AM 34.7 °F - 33.6 °F 96% 29.98 in 10.0 mi Calm Calm - N/A   Clear
6:15 AM 35.2 °F - 33.6 °F 94% 29.97 in 10.0 mi Calm Calm - N/A   Clear
6:35 AM 36.1 °F - 34.7 °F 94% 29.98 in 10.0 mi Calm Calm - N/A   Clear
6:55 AM 34.7 °F - 33.4 °F 95% 29.98 in 10.0 mi Calm Calm - N/A   Clear
7:15 AM 35.6 °F - 33.8 °F 93% 29.97 in 10.0 mi Calm Calm - N/A   Clear
7:35 AM 35.4 °F - 34.2 °F 95% 29.98 in 10.0 mi Calm Calm - N/A   Clear
7:55 AM 38.3 °F 35.9 °F 35.8 °F 91% 29.98 in 10.0 mi South 3.5 mph - N/A   Clear
8:15 AM 39.2 °F - 36.3 °F 89% 29.98 in 10.0 mi Calm Calm - N/A   Clear
8:35 AM 43.3 °F - 36.9 °F 78% 29.99 in 10.0 mi Calm Calm - N/A   Clear
8:55 AM 45.5 °F 42.5 °F 37.0 °F 72% 29.99 in 10.0 mi SW 5.8 mph - N/A   Clear
9:15 AM 48.0 °F - 37.9 °F 68% 29.98 in 10.0 mi South 4.6 mph - N/A   Clear
9:35 AM 48.6 °F - 38.1 °F 67% 29.98 in 10.0 mi Calm Calm - N/A   Clear
9:55 AM 50.4 °F - 38.5 °F 64% 29.98 in 10.0 mi South 4.6 mph - N/A   Scattered Clouds
10:15 AM 51.8 °F - 38.8 °F 61% 29.96 in 10.0 mi SE 4.6 mph - N/A   Scattered Clouds
10:35 AM 52.9 °F - 39.7 °F 61% 29.96 in 10.0 mi SSE 5.8 mph - N/A   Clear
10:55 AM 55.0 °F - 39.9 °F 57% 29.95 in 10.0 mi SSE 6.9 mph - N/A   Scattered Clouds
11:15 AM 57.4 °F - 40.6 °F 54% 29.95 in 10.0 mi South 6.9 mph - N/A   Scattered Clouds
11:35 AM 58.1 °F - 39.0 °F 49% 29.93 in 10.0 mi SSW 8.1 mph - N/A   Scattered Clouds
11:55 AM 57.9 °F - 39.2 °F 50% 29.92 in 10.0 mi SSW 6.9 mph - N/A   Mostly Cloudy
12:15 PM 58.1 °F - 39.9 °F 51% 29.91 in 10.0 mi SSW 6.9 mph - N/A   Mostly Cloudy
12:35 PM 58.1 °F - 40.5 °F 52% 29.89 in 10.0 mi South 6.9 mph - N/A   Scattered Clouds
12:55 PM 59.4 °F - 40.6 °F 50% 29.87 in 10.0 mi South 8.1 mph - N/A   Scattered Clouds
1:15 PM 60.8 °F - 39.7 °F 46% 29.85 in 10.0 mi South 8.1 mph - N/A   Clear
1:35 PM 61.0 °F - 39.2 °F 45% 29.85 in 10.0 mi South 9.2 mph - N/A   Scattered Clouds
1:55 PM 59.9 °F - 38.5 °F 45% 29.84 in 10.0 mi South 5.8 mph - N/A   Mostly Cloudy
2:15 PM 60.8 °F - 39.6 °F 46% 29.83 in 10.0 mi South 6.9 mph - N/A   Mostly Cloudy
2:35 PM 61.5 °F - 40.6 °F 46% 29.82 in 10.0 mi SSE 6.9 mph - N/A   Mostly Cloudy
2:55 PM 61.0 °F - 40.3 °F 46% 29.82 in 10.0 mi South 4.6 mph - N/A   Mostly Cloudy
3:15 PM 62.1 °F - 41.4 °F 47% 29.80 in 10.0 mi SSE 6.9 mph - N/A   Overcast
3:35 PM 64.6 °F - 41.9 °F 44% 29.79 in 10.0 mi SE 9.2 mph - N/A   Overcast
3:55 PM 66.0 °F - 41.7 °F 41% 29.79 in 10.0 mi SSE 9.2 mph - N/A   Mostly Cloudy
4:15 PM 64.8 °F - 41.7 °F 43% 29.79 in 10.0 mi SSE 9.2 mph - N/A   Mostly Cloudy
4:35 PM 63.0 °F - 43.5 °F 49% 29.78 in 10.0 mi SE 6.9 mph - N/A   Scattered Clouds
4:55 PM 62.8 °F - 43.2 °F 49% 29.77 in 10.0 mi SE 6.9 mph - N/A   Clear
5:15 PM 62.4 °F - 43.5 °F 50% 29.76 in 10.0 mi SE 8.1 mph - N/A   Clear
5:35 PM 59.7 °F - 44.1 °F 56% 29.77 in 10.0 mi SE 6.9 mph - N/A   Clear
5:55 PM 56.8 °F - 43.7 °F 61% 29.77 in 10.0 mi SE 4.6 mph - N/A   Clear
6:15 PM 54.0 °F - 43.7 °F 68% 29.76 in 10.0 mi SSE 5.8 mph - N/A   Clear
6:35 PM 54.5 °F - 43.7 °F 67% 29.77 in 10.0 mi SSE 4.6 mph - N/A   Clear
6:55 PM 53.8 °F - 44.1 °F 70% 29.77 in 10.0 mi South 4.6 mph - N/A   Clear
7:15 PM 53.2 °F - 44.1 °F 71% 29.78 in 10.0 mi Calm Calm - N/A   Clear
7:35 PM 52.3 °F - 43.9 °F 73% 29.78 in 10.0 mi Calm Calm - N/A   Clear
7:55 PM 53.1 °F - 44.4 °F 72% 29.79 in 10.0 mi Calm Calm - N/A   Clear
8:15 PM 52.9 °F - 45.0 °F 74% 29.79 in 10.0 mi South 3.5 mph - N/A   Clear
8:35 PM 54.0 °F - 46.4 °F 76% 29.80 in 10.0 mi Calm Calm - N/A   Clear
8:55 PM 52.7 °F - 45.7 °F 77% 29.80 in 10.0 mi South 3.5 mph - N/A   Clear
9:15 PM 52.3 °F - 46.6 °F 81% 29.80 in 10.0 mi SSE 3.5 mph - N/A   Clear
9:35 PM 52.9 °F - 48.2 °F 84% 29.81 in 10.0 mi South 3.5 mph - N/A   Clear
9:55 PM 52.3 °F - 49.1 °F 89% 29.81 in 10.0 mi South 5.8 mph - N/A   Clear
10:15 PM 54.7 °F - 51.1 °F 88% 29.81 in 10.0 mi South 4.6 mph - N/A   Clear
10:35 PM 53.4 °F - 51.3 °F 92% 29.82 in 10.0 mi South 4.6 mph - N/A   Clear
10:55 PM 54.9 °F - 52.0 °F 90% 29.82 in 10.0 mi South 3.5 mph - N/A   Clear
11:15 PM 54.5 °F - 52.0 °F 91% 29.83 in 10.0 mi SSW 4.6 mph - N/A   Clear
11:35 PM 54.5 °F - 52.2 °F 92% 29.83 in 10.0 mi SSW 4.6 mph - N/A   Clear
11:55 PM 54.0 °F - 52.0 °F 93% 29.83 in 10.0 mi Calm Calm - N/A   Clear